[[[{"header":{"parameterUnit":"kt","parameterCategory":2,"dx":1,"dy":1,"la1":30.253999710083008,"la2":30.299108505249023,"lo1":-89.0895004272461,"lo2":-89.04439544677734,"nx":28,"ny":28,"refTime":"2022-10-05T21:00:00:Z","depth":0,"parameterNumber":1,"parameterNumberName":"U-component_of_WINDS"},"data":[2.2347,2.2326,2.2294,2.2256,2.222,2.2188,2.2167,2.2135,2.2101,2.206,2.203,2.1995,2.1948,2.1904,2.187,2.1855,2.1843,2.186,2.1839,2.1794,2.1785,2.1777,2.178,2.1858,2.1858,2.1891,2.1892,2.1892,2.2319,2.2283,2.2253,2.2202,2.2176,2.2141,2.2097,2.2078,2.205,2.2008,2.1977,2.1937,2.1901,2.1847,2.1807,2.1797,2.1777,2.1788,2.1789,2.1782,2.1732,2.1735,2.1805,2.1805,2.1805,2.1805,2.1805,2.1805,2.2258,2.2247,2.2196,2.2163,2.2128,2.2094,2.2078,2.2035,2.2004,2.1959,2.1925,2.1893,2.1844,2.1779,2.1749,2.1723,2.1704,2.1706,2.1706,2.1707,2.1713,2.1671,2.1714,2.1714,2.1713,2.1713,2.1713,0,2.2203,2.2177,2.2145,2.2104,2.2078,2.2043,2.2005,2.1993,2.1925,2.1903,2.1868,2.1842,2.1791,2.1755,2.1709,2.1676,2.1637,2.1629,2.1629,2.1645,2.1666,2.1655,2.1576,2.1627,2.1626,2.1626,2.1625,2.1625,2.214,2.213,2.2061,2.2043,2.2014,2.1986,2.1963,2.1903,2.188,2.1825,2.1817,2.178,2.1746,2.1695,2.1644,2.1605,2.1585,2.1609,2.1579,2.1596,2.1586,2.1587,2.1586,2.1616,2.1617,2.1618,2.1619,0,2.2107,2.2053,2.2027,2.1958,2.1941,2.1934,2.1875,2.1861,2.182,2.1795,2.1785,2.1721,2.1687,2.1631,2.1581,2.1553,2.1541,2.1522,2.1557,2.1551,2.1566,2.1566,2.1625,2.163,2.1548,2.1549,2.155,0,2.2031,2.2021,2.194,2.1928,2.1914,2.1853,2.1841,2.1804,2.176,2.174,2.1685,2.1667,2.1598,2.1572,2.153,2.151,2.15,2.1477,2.1466,2.1482,2.1485,2.1469,2.1465,2.1441,2.1441,2.1441,2.144,0,2.1986,2.193,2.191,2.1888,2.1813,2.1805,2.1774,2.1724,2.1701,2.1662,2.1647,2.1606,2.1584,2.1554,2.15,2.1482,2.1474,2.1438,2.1451,2.1452,2.1451,2.1452,2.1519,2.144,2.144,2.144,2.144,0,2.1917,2.1879,2.1857,2.1794,2.1781,2.1768,2.1723,2.1698,2.165,2.1622,2.1591,2.1547,2.1525,2.1494,2.1461,2.1453,2.1435,2.141,2.141,2.1404,2.1371,2.1416,2.1486,2.1491,2.14,2.14,2.1399,0,2.188,2.1843,2.179,2.1771,2.1746,2.1686,2.1669,2.1628,2.1589,2.1562,2.152,2.1489,2.1454,2.1436,2.1428,2.1383,2.1393,2.138,2.1342,2.1341,2.1357,2.142,2.1445,2.1477,2.1394,2.1395,2.1395,0,2.1845,2.1754,2.1754,2.1726,2.166,2.1639,2.162,2.1576,2.1561,2.152,2.1502,2.1458,2.1429,2.1401,2.136,2.1355,2.1384,2.1324,2.1322,2.1337,2.1387,2.141,2.1416,2.1359,2.1359,2.136,2.1391,0,2.1753,2.1726,2.1724,2.1665,2.1639,2.1623,2.1562,2.1543,2.1507,2.1466,2.1439,2.1389,2.1343,2.1334,2.1298,2.1303,2.1293,2.1263,2.1227,2.127,2.1278,2.1282,2.1219,2.1218,2.1217,2.1216,0,0,2.1732,2.1692,2.1634,2.1613,2.1587,2.1524,2.1512,2.148,2.1416,2.14,2.138,2.131,2.127,2.1243,2.1252,2.1233,2.1228,2.1215,2.125,2.1254,2.1258,2.1268,2.1273,2.1214,2.1213,2.1213,2.1213,0,2.1685,2.1645,2.1634,2.1598,2.1543,2.1499,2.1497,2.143,2.1404,2.1376,2.1324,2.13,2.1245,2.1209,2.1184,2.1217,2.1179,2.1208,2.1247,2.124,2.1246,2.1251,2.1263,2.1268,2.121,2.121,2.121,0,2.1639,2.159,2.1578,2.1516,2.1479,2.1454,2.1403,2.1378,2.1359,2.129,2.1263,2.1227,2.1174,2.1156,2.1146,2.1127,2.1137,2.1123,2.1128,2.1126,2.1116,2.1123,2.1129,2.1048,2.1048,2.1048,0,0,2.1607,2.1582,2.1509,2.1502,2.1482,2.1417,2.1398,2.1359,2.1312,2.1294,2.1245,2.1202,2.1169,2.1149,2.1115,2.1104,2.1088,2.1105,2.1113,2.1119,2.112,2.1113,2.112,2.1047,2.1047,2.1047,0,0,2.1592,2.1507,2.1478,2.1462,2.1419,2.1347,2.1344,2.1307,2.127,2.1265,2.1197,2.1183,2.1165,2.1131,2.1123,2.1101,2.1067,2.1068,2.1124,2.1132,2.114,2.1148,2.1062,0,0,0,0,0,2.1512,2.1518,2.1493,2.148,2.1401,2.1361,2.1351,2.1295,2.1273,2.1272,2.1226,2.1185,2.1113,2.1104,2.1093,2.1103,2.1032,2.1034,2.1037,2.1106,2.1116,2.1124,0,0,0,0,0,0,2.1507,2.1492,2.1492,2.1421,2.1403,2.136,2.131,2.1295,2.1271,2.1264,2.1196,2.1183,2.1135,2.1106,2.1097,2.1107,2.1065,2.1033,2.1035,2.1037,2.1109,2.1117,2.1124,0,0,0,0,0,2.1502,2.149,2.1378,2.142,2.1405,2.1332,2.131,2.1297,2.1277,2.1205,2.1191,2.1237,2.1137,2.1125,2.11,2.1113,2.1071,2.1068,2.1034,2.1036,2.1038,2.1113,0,0,0,0,0,0,2.1499,2.1478,2.1373,2.1367,2.1414,2.1334,2.1319,2.1298,2.1218,2.1205,2.1243,2.1239,2.1138,2.1129,2.112,2.1118,2.1076,2.1073,2.1071,2.1036,2.1037,2.1038,0,0,0,0,0,0,2.1484,2.1473,2.137,2.1365,2.1356,2.1335,2.1322,2.1293,2.1218,2.1261,2.1254,2.1242,2.1151,2.1132,2.1125,2.1081,2.108,2.1076,2.1074,2.1073,2.1037,2.1038,0,0,0,0,0,0,2.1478,2.1468,2.1366,2.136,2.1353,2.1271,2.1308,2.123,2.1214,2.1265,2.1211,2.121,2.1155,2.1146,2.1128,2.1087,2.1082,2.1079,2.1077,2.1076,2.1075,0,0,0,0,0,0,0,2.1473,2.1552,2.1415,2.1356,2.1349,2.1303,2.1301,2.1299,2.1214,2.1213,2.1212,2.121,2.1097,2.1094,2.109,2.1093,0,0,2.108,2.1078,0,0,0,0,0,0,0,0,2.1555,2.1553,2.1415,2.1413,2.1412,2.1302,2.1301,2.1299,2.1214,2.1213,2.1212,2.1211,2.1096,2.1094,2.1091,0,0,0,0,0,0,0,0,0,0,0,0,0,0,0,2.1414,2.1413,0,2.1302,2.1301,2.13,2.1214,2.1213,2.1212,2.1211,2.1096,2.1093,2.1091,0,0,0,0,0,0,0,0,0,0,0,0,0,0,0,0,0,0,0,0,0,0,0,0,0,0,0,0,0,0,0,0,0,0,0,0,0,0,0,0,0,0,0,0,0,0,0,0,0,0,0,0,0,0,0,0,0,0,0,0,0,0,0,0,0,0,0,0,0]}],[{"header":{"parameterUnit":"kt","parameterCategory":2,"dx":1,"dy":1,"la1":30.253999710083008,"la2":30.299108505249023,"lo1":-89.0895004272461,"lo2":-89.04439544677734,"nx":28,"ny":28,"refTime":"2022-10-05T21:00:00:Z","depth":0,"parameterNumber":2,"parameterNumberName":"V-component_of_WINDS"},"data":[-2.9002,-2.9102,-2.9139,-2.9269,-2.9324,-2.942,-2.9466,-2.953,-2.959,-2.9709,-2.9784,-2.9831,-2.9905,-3.0004,-3.0087,-3.0106,-3.014,-3.0151,-3.0172,-3.0091,-3.0082,-3.0074,-3.0054,-3.0157,-3.0157,-3.0251,-3.0252,-3.0252,-2.8947,-2.9003,-2.9081,-2.9182,-2.9251,-2.9264,-2.9345,-2.9402,-2.9487,-2.956,-2.9635,-2.9743,-2.9832,-2.9903,-2.9995,-3.0044,-3.0056,-3.0067,-3.0065,-3.0077,-2.9992,-2.997,-3.0057,-3.0057,-3.0057,-3.0057,-3.0057,-3.0057,-2.8857,-2.8914,-2.8996,-2.9082,-2.9142,-2.9209,-2.9271,-2.9326,-2.9403,-2.9502,-2.9529,-2.9626,-2.9706,-2.9832,-2.9883,-2.9961,-2.9955,-2.9978,-2.9985,-2.9991,-2.9994,-2.986,-2.9977,-2.9977,-2.9977,-2.9977,-2.9977,0,-2.8803,-2.8829,-2.8905,-2.8994,-2.9058,-2.9129,-2.92,-2.9239,-2.9304,-2.9365,-2.9456,-2.9515,-2.9631,-2.9721,-2.9814,-2.9862,-2.9881,-2.9885,-2.9903,-2.9893,-2.9874,-2.9889,-2.9752,-2.9882,-2.9881,-2.988,-2.988,-2.988,-2.8717,-2.8777,-2.8878,-2.8928,-2.8975,-2.9052,-2.9106,-2.9159,-2.9214,-2.9309,-2.9357,-2.9447,-2.9522,-2.9662,-2.9724,-2.981,-2.982,-2.9867,-2.9833,-2.9822,-2.9826,-2.9822,-2.9831,-2.9873,-2.9874,-2.9874,-2.9875,0,-2.8666,-2.8722,-2.8827,-2.892,-2.8946,-2.9007,-2.9087,-2.9145,-2.9191,-2.9278,-2.9302,-2.9373,-2.9461,-2.9516,-2.9626,-2.9652,-2.9759,-2.9764,-2.9733,-2.9739,-2.9788,-2.9784,-2.9933,-2.9957,-2.9847,-2.9848,-2.9849,0,-2.8616,-2.8693,-2.8773,-2.883,-2.8919,-2.8969,-2.9055,-2.9102,-2.917,-2.9239,-2.9267,-2.9332,-2.9391,-2.9463,-2.9502,-2.9598,-2.9617,-2.9644,-2.9654,-2.9643,-2.964,-2.9674,-2.967,-2.9668,-2.9667,-2.9666,-2.9666,0,-2.8533,-2.8663,-2.8756,-2.8795,-2.89,-2.8943,-2.8989,-2.9064,-2.9115,-2.919,-2.9224,-2.9307,-2.9353,-2.9418,-2.9467,-2.9442,-2.9584,-2.956,-2.9612,-2.9611,-2.9641,-2.9638,-2.9756,-2.9665,-2.9665,-2.9664,-2.9664,0,-2.8501,-2.8575,-2.87,-2.8789,-2.8821,-2.8882,-2.8968,-2.9032,-2.9108,-2.9136,-2.9195,-2.9221,-2.9305,-2.9279,-2.9399,-2.9354,-2.9398,-2.9431,-2.9435,-2.9448,-2.9417,-2.9479,-2.9583,-2.9598,-2.9458,-2.9457,-2.9455,0,-2.8392,-2.8532,-2.8575,-2.8693,-2.8765,-2.8794,-2.8863,-2.8928,-2.8971,-2.9039,-2.9086,-2.9162,-2.9154,-2.9185,-2.9237,-2.9289,-2.9347,-2.9282,-2.9383,-2.9387,-2.9366,-2.9461,-2.9464,-2.9554,-2.9434,-2.9436,-2.9438,0,-2.8314,-2.8438,-2.8456,-2.8503,-2.8596,-2.8655,-2.8733,-2.8819,-2.8863,-2.8931,-2.9,-2.9106,-2.9105,-2.9155,-2.9183,-2.9234,-2.9309,-2.9226,-2.9229,-2.9242,-2.9426,-2.9429,-2.9444,-2.9317,-2.932,-2.9322,-2.9421,0,-2.826,-2.8335,-2.8384,-2.8481,-2.8535,-2.8609,-2.8666,-2.8715,-2.8738,-2.878,-2.8879,-2.8943,-2.903,-2.9059,-2.908,-2.9178,-2.917,-2.9167,-2.9146,-2.9206,-2.9241,-2.9254,-2.9091,-2.909,-2.909,-2.909,0,0,-2.8143,-2.8251,-2.8294,-2.837,-2.8418,-2.8445,-2.852,-2.857,-2.8668,-2.8702,-2.869,-2.8849,-2.8902,-2.9016,-2.9039,-2.9072,-2.9096,-2.9071,-2.9176,-2.9186,-2.9195,-2.923,-2.9243,-2.9089,-2.9089,-2.9089,-2.9089,0,-2.8135,-2.8187,-2.8259,-2.8313,-2.8393,-2.8434,-2.8451,-2.8535,-2.8565,-2.8659,-2.868,-2.8745,-2.8868,-2.8923,-2.8967,-2.9059,-2.9071,-2.908,-2.9113,-2.9172,-2.9181,-2.919,-2.9227,-2.9239,-2.9088,-2.9089,-2.9089,0,-2.8071,-2.8132,-2.8172,-2.828,-2.8332,-2.8403,-2.8395,-2.8469,-2.8524,-2.8547,-2.864,-2.8683,-2.8759,-2.8857,-2.8903,-2.8894,-2.9045,-2.9005,-2.9008,-2.9014,-2.9074,-2.9085,-2.9096,-2.896,-2.896,-2.8959,0,0,-2.8056,-2.8124,-2.8205,-2.8282,-2.8313,-2.8373,-2.8416,-2.8442,-2.8509,-2.8536,-2.8591,-2.8656,-2.8729,-2.8775,-2.8846,-2.8945,-2.8966,-2.8987,-2.8993,-2.8997,-2.9006,-2.9067,-2.9079,-2.8957,-2.8956,-2.8956,0,0,-2.8049,-2.8145,-2.8155,-2.8251,-2.8315,-2.8399,-2.8444,-2.8458,-2.8527,-2.8524,-2.8571,-2.859,-2.8682,-2.8723,-2.8683,-2.884,-2.8817,-2.8828,-2.881,-2.8818,-2.8824,-2.8813,-2.8683,0,0,0,0,0,-2.8068,-2.8134,-2.8142,-2.8166,-2.83,-2.8394,-2.8412,-2.8452,-2.8437,-2.8472,-2.8521,-2.8529,-2.8712,-2.8678,-2.8701,-2.8745,-2.8924,-2.893,-2.8935,-2.8936,-2.8944,-2.8951,0,0,0,0,0,0,-2.8078,-2.8107,-2.814,-2.8226,-2.8257,-2.8392,-2.8376,-2.8388,-2.8434,-2.8435,-2.852,-2.8532,-2.8568,-2.8669,-2.8689,-2.873,-2.8677,-2.8927,-2.8931,-2.8936,-2.8939,-2.8945,-2.8951,0,0,0,0,0,-2.8086,-2.8109,-2.8314,-2.8226,-2.8252,-2.8322,-2.8373,-2.8384,-2.842,-2.8494,-2.8506,-2.8446,-2.8568,-2.8588,-2.8681,-2.872,-2.8663,-2.867,-2.893,-2.8934,-2.8937,-2.8942,0,0,0,0,0,0,-2.8092,-2.812,-2.832,-2.833,-2.8203,-2.8315,-2.8334,-2.838,-2.8477,-2.849,-2.8422,-2.8421,-2.8569,-2.8584,-2.8599,-2.8714,-2.8652,-2.8659,-2.8664,-2.8933,-2.8936,-2.8938,0,0,0,0,0,0,-2.8107,-2.8128,-2.8325,-2.8294,-2.8301,-2.8309,-2.8325,-2.8409,-2.8478,-2.84,-2.8402,-2.8421,-2.8546,-2.8582,-2.8593,-2.8723,-2.8643,-2.865,-2.8655,-2.8658,-2.8935,-2.8937,0,0,0,0,0,0,-2.8117,-2.8134,-2.8292,-2.8297,-2.8302,-2.8414,-2.8384,-2.8519,-2.8452,-2.8395,-2.8447,-2.8445,-2.8543,-2.8556,-2.859,-2.8714,-2.8721,-2.8643,-2.8648,-2.8652,-2.8654,0,0,0,0,0,0,0,-2.8124,-2.7997,-2.8263,-2.8299,-2.8304,-2.8419,-2.8421,-2.8424,-2.8451,-2.8449,-2.8447,-2.8446,-2.8602,-2.861,-2.8618,-2.8707,0,0,-2.8642,-2.8646,0,0,0,0,0,0,0,0,-2.7991,-2.7996,-2.8263,-2.8265,-2.8267,-2.8419,-2.8421,-2.8423,-2.8451,-2.8449,-2.8448,-2.8446,-2.8604,-2.861,-2.8617,0,0,0,0,0,0,0,0,0,0,0,0,0,0,0,-2.8263,-2.8265,0,-2.8419,-2.8421,-2.8423,-2.8451,-2.8449,-2.8448,-2.8447,-2.8606,-2.8611,-2.8616,0,0,0,0,0,0,0,0,0,0,0,0,0,0,0,0,0,0,0,0,0,0,0,0,0,0,0,0,0,0,0,0,0,0,0,0,0,0,0,0,0,0,0,0,0,0,0,0,0,0,0,0,0,0,0,0,0,0,0,0,0,0,0,0,0,0,0,0,0]}]]]